Vertical_Velocity
-0 -0 0 0 1 1 -0 -1 -0 0 1 1 1 0 -0 1 3 2 -0 -1 0 -0 1 2 7 2 1 1 2 1 0 1 0
-1 -1 -1 -1 0 0 0 0 -0 -0 -0 0 0 1 1 1 -0 -0 0 -0 0 2 1 -1 2 1 2 2 -0 1 1 0 1
-2 -2 -1 -1 -1 -1 -1 -1 -1 -1 -0 1 1 2 1 1 0 1 2 -1 0 1 -1 2 3 -1 -2 1 1 3 2 2 3
-2 -1 -1 -1 -1 -1 0 0 1 1 1 1 0 -0 -0 1 2 1 1 2 0 -0 -2 3 1 1 1 1 1 3 2 2 1
-1 -1 -1 -1 -2 -1 -1 -2 -0 0 0 0 0 -0 -0 1 -0 -1 -0 1 1 -1 0 1 1 1 -1 -1 -2 -0 1 1 4
-1 -1 -1 -1 -2 -2 -2 -1 -1 -1 -0 -1 -1 -1 1 0 -0 1 -2 -0 1 1 0 2 0 2 1 1 -0 -2 -0 -2 -1
-1 -1 -1 -1 -1 -1 -1 -2 -1 -1 -1 -1 -2 -1 0 -0 -1 -1 1 -1 -0 -0 -1 -1 1 0 0 1 1 -1 -2 -2 -2
-1 -1 -1 -1 -2 -2 -1 -1 -0 -0 -1 -1 -0 0 1 -1 -1 -1 -0 0 -1 -1 1 -2 0 -1 -1 -2 -0 -2 -1 -0 0
-2 -1 -1 -1 -1 0 -1 -1 -1 -2 -0 -0 -1 -0 -0 1 1 -0 -1 -1 -0 -0 -1 -1 -1 1 1 -0 1 1 1 -1 -1
-1 -2 -1 -1 -1 -1 -1 -1 -1 -3 -3 -1 0 -1 -1 -1 -0 0 -0 1 0 -1 0 1 -1 -1 0 -0 0 1 -1 -2 -1
-2 -2 -2 -2 -2 -1 -1 1 -1 -3 -2 -1 -0 -1 -1 -1 -0 0 -0 0 -0 -1 0 1 -0 -1 -0 -1 -0 -0 -2 -2 -1
-2 -2 -3 -2 -2 -1 -1 -1 -1 -3 -4 -2 -2 -1 -1 -1 -0 0 -0 -0 -0 0 0 1 -0 1 1 -1 1 0 -0 -1 -1
1 0 -0 0 -1 -1 0 0 -1 -1 -1 -0 -1 -1 -1 -0 -0 -1 0 0 -0 0 0 0 1 1 1 1 0 -2 1 -1 -1
-0 -1 -1 -1 -0 -1 -0 -2 0 0 -1 -0 -0 -1 -1 -0 -0 -0 0 1 -2 -1 -1 0 0 0 1 2 -0 0 -2 -2 -2
-1 -0 -0 -0 -2 -1 -1 -2 -3 -1 -1 -0 1 2 -0 -0 0 1 1 -0 -1 -1 0 -0 -1 0 0 1 0 1 -1 -1 -1
-1 -1 -2 -1 -2 -2 -0 -1 1 -1 -1 -4 -3 0 1 0 0 0 2 -0 -1 0 1 0 -1 1 0 -0 0 1 -1 -1 -1
-1 -2 -2 -2 -2 -2 -0 -1 -1 -1 2 0 -0 -2 -1 1 2 0 -0 -2 -1 0 1 -1 0 1 1 -1 1 2 -2 1 -0
-1 -1 -1 -1 -3 -2 -1 -2 -2 -1 -2 0 0 0 1 2 -0 0 -1 -2 -2 -1 -1 -0 2 2 -0 -0 2 1 -3 0 0
-1 -1 -2 -1 -1 -2 -1 -1 -3 -2 -2 -3 -2 -1 -2 0 5 -0 -0 -1 -0 1 -1 -1 -0 0 0 1 2 1 -1 -0 1
-2 -1 -2 -2 -2 1 -1 -2 -3 -1 -0 -0 -1 -2 -3 -4 -1 5 4 -4 -2 2 0 -1 0 1 0 2 1 -1 -0 1 0
Height
3153 3151 3150 3148 3147 3145 3144 3143 3142 3141 3141 3140 3140 3141 3141 3141 3141 3141 3140 3140 3141 3142 3142 3143 3143 3143 3144 3145 3146 3146 3148 3148 3149
3151 3149 3148 3146 3145 3144 3143 3142 3141 3140 3140 3139 3139 3139 3138 3138 3138 3137 3138 3137 3136 3137 3138 3138 3139 3141 3141 3142 3143 3143 3144 3145 3145
3150 3148 3146 3144 3143 3142 3141 3140 3140 3139 3138 3138 3137 3137 3136 3136 3135 3134 3134 3134 3133 3132 3132 3135 3136 3136 3137 3138 3139 3139 3140 3141 3142
3148 3146 3145 3143 3142 3140 3139 3138 3138 3137 3136 3136 3135 3134 3134 3133 3133 3132 3131 3130 3130 3129 3128 3130 3131 3132 3133 3133 3134 3135 3136 3137 3138
3146 3144 3143 3141 3140 3138 3137 3137 3136 3135 3135 3134 3133 3132 3131 3130 3129 3128 3127 3126 3126 3126 3125 3125 3127 3128 3128 3129 3130 3131 3132 3132 3133
3145 3143 3141 3140 3138 3137 3136 3135 3135 3134 3133 3132 3130 3129 3128 3126 3125 3124 3124 3123 3121 3121 3122 3121 3122 3123 3123 3124 3125 3126 3127 3128 3129
3144 3142 3140 3139 3137 3136 3135 3134 3133 3132 3131 3129 3128 3126 3125 3123 3122 3121 3120 3119 3118 3117 3117 3118 3117 3118 3119 3119 3118 3120 3121 3122 3122
3143 3141 3139 3138 3136 3135 3134 3132 3131 3130 3128 3126 3125 3123 3121 3120 3119 3117 3116 3115 3114 3114 3113 3113 3113 3112 3113 3113 3113 3114 3115 3115 3115
3142 3140 3138 3137 3135 3134 3132 3130 3129 3127 3126 3124 3122 3121 3119 3117 3115 3114 3112 3111 3110 3110 3109 3108 3109 3108 3108 3108 3108 3108 3109 3109 3109
3140 3139 3137 3135 3134 3132 3130 3129 3127 3125 3122 3121 3120 3118 3115 3114 3112 3109 3108 3107 3106 3106 3104 3104 3104 3104 3103 3102 3102 3102 3103 3103 3103
3139 3137 3136 3134 3132 3130 3128 3126 3124 3122 3119 3117 3116 3114 3112 3110 3108 3106 3105 3104 3103 3102 3100 3099 3099 3099 3097 3097 3096 3096 3096 3096 3096
3138 3136 3134 3132 3129 3127 3125 3122 3121 3118 3116 3114 3113 3111 3109 3106 3105 3103 3101 3100 3099 3098 3097 3096 3095 3095 3094 3093 3093 3093 3092 3091 3091
3135 3133 3131 3129 3126 3123 3121 3119 3117 3114 3111 3110 3108 3107 3105 3103 3101 3100 3098 3096 3094 3094 3093 3092 3091 3090 3090 3089 3089 3088 3087 3087 3086
3134 3131 3129 3126 3123 3120 3118 3116 3114 3111 3107 3106 3104 3102 3101 3099 3097 3096 3094 3092 3090 3089 3088 3087 3087 3085 3085 3084 3084 3082 3082 3082 3081
3131 3128 3126 3123 3120 3117 3115 3113 3110 3108 3104 3102 3100 3098 3096 3095 3093 3091 3090 3088 3086 3085 3084 3083 3082 3081 3081 3080 3079 3077 3078 3077 3075
3128 3125 3123 3120 3118 3115 3113 3110 3107 3105 3102 3099 3097 3094 3092 3091 3089 3087 3085 3084 3082 3081 3080 3079 3078 3077 3076 3076 3074 3073 3073 3072 3070
3124 3122 3119 3116 3114 3111 3109 3106 3104 3102 3100 3097 3094 3092 3090 3087 3086 3084 3082 3079 3077 3076 3076 3075 3074 3073 3072 3071 3069 3069 3069 3067 3065
3121 3118 3116 3113 3110 3108 3105 3103 3100 3098 3096 3094 3093 3090 3088 3085 3082 3080 3078 3075 3073 3072 3071 3070 3069 3068 3067 3066 3064 3064 3064 3062 3060
3117 3115 3112 3109 3107 3104 3102 3100 3098 3096 3093 3090 3089 3087 3086 3084 3083 3079 3076 3072 3069 3068 3067 3065 3064 3063 3062 3060 3059 3059 3058 3056 3054
3114 3111 3109 3106 3104 3101 3099 3097 3095 3092 3090 3088 3085 3083 3081 3080 3079 3079 3077 3072 3067 3065 3063 3061 3060 3058 3057 3055 3054 3053 3053 3051 3049